Weather History for Alva, OK

Change the Weather History Date:

Thursday, January 31, 2013

  Actual Average Record
Temperature  
Mean Temperature 34 °F -  
Max Temperature 48 °F 53 °F 76 °F (1989)
Min Temperature 17 °F 24 °F -5 °F (1979)
Degree Days  
Heating Degree Days 32    
Moisture  
Dew Point 17 °F    
Average Humidity 59    
Maximum Humidity 74    
Minimum Humidity 34    
Precipitation  
Precipitation 0.00 in - - ()
Sea Level Pressure  
Sea Level Pressure 30.18 in    
Wind  
Wind Speed 10 mph (NNE)    
Max Wind Speed 22 mph    
Max Gust Speed 29 mph    
Visibility 10 miles    
Events      
Averages and records for this station are not official NWS values.
T = Trace of Precipitation, MM = Missing Value Source: NWS Daily Summary

Daily Weather History Graph

Daily Weather History Graph

Search for Another Location

Airport:

Trip Planner

Search our weather history database for the weather conditions in past years. The results will help you decide how hot, cold, wet, or windy it might be!

Date:

Astronomy

Jan. 31, 2013 Rise Set
Actual Time 7:37 AM CST 5:59 PM CST
Civil Twilight 7:10 AM CST 6:26 PM CST
Nautical Twilight 6:39 AM CST 6:57 PM CST
Astronomical Twilight 6:08 AM CST 7:28 PM CST
Moon 10:53 PM CST (1/31) 9:46 AM CST (1/31)
Length of Visible Light 11h 16m
Length of Day
10h 22m
Waning Gibbous, 79% of the Moon is Illuminated
Jan 31
Waning Gibbous
Feb 3
Last Quarter
Feb 10
New
Feb 17
First Quarter
Feb 25
Full

Hourly Weather History & Observations

Time (CST) Temp. Windchill Dew Point Humidity Pressure Visibility Wind Dir Wind Speed Gust Speed Precip Events Conditions
12:10 AM 26.6 °F 18.2 °F 15.8 °F 64% 30.02 in 10.0 mi WSW 8.1 mph - N/A   Clear
12:30 AM 24.8 °F 15.3 °F 14.0 °F 64% 30.02 in 10.0 mi WSW 9.2 mph - N/A   Clear
12:50 AM 26.6 °F 19.1 °F 15.8 °F 64% 30.01 in 10.0 mi West 6.9 mph - N/A   Clear
1:10 AM 26.6 °F 19.1 °F 14.0 °F 59% 30.01 in 10.0 mi West 6.9 mph - N/A   Clear
1:30 AM 26.6 °F 19.1 °F 14.0 °F 59% 30.01 in 10.0 mi SW 6.9 mph - N/A   Clear
1:50 AM 24.8 °F 15.3 °F 14.0 °F 64% 30.00 in 10.0 mi WSW 9.2 mph - N/A   Clear
2:10 AM 24.8 °F 16.1 °F 14.0 °F 64% 30.00 in 10.0 mi West 8.1 mph - N/A   Clear
2:30 AM 24.8 °F 16.1 °F 14.0 °F 64% 30.00 in 10.0 mi West 8.1 mph - N/A   Clear
2:50 AM 23.0 °F 13.1 °F 14.0 °F 68% 30.00 in 10.0 mi WSW 9.2 mph - N/A   Clear
3:10 AM 24.8 °F 14.6 °F 15.8 °F 69% 29.99 in 10.0 mi WSW 10.4 mph - N/A   Clear
3:30 AM 24.8 °F 14.0 °F 15.8 °F 69% 30.00 in 10.0 mi WSW 11.5 mph - N/A   Clear
3:50 AM 24.8 °F 15.3 °F 15.8 °F 69% 29.98 in 10.0 mi WSW 9.2 mph - N/A   Clear
4:10 AM 23.0 °F 13.9 °F 15.8 °F 74% 29.99 in 10.0 mi West 8.1 mph - N/A   Clear
4:30 AM 24.8 °F 16.9 °F 15.8 °F 69% 29.99 in 10.0 mi West 6.9 mph - N/A   Scattered Clouds
4:50 AM 24.8 °F 16.9 °F 15.8 °F 69% 29.99 in 10.0 mi West 6.9 mph - N/A   Mostly Cloudy
5:10 AM 24.8 °F 16.9 °F 15.8 °F 69% 29.98 in 10.0 mi West 6.9 mph - N/A   Clear
5:30 AM 24.8 °F 17.9 °F 15.8 °F 69% 29.99 in 10.0 mi West 5.8 mph - N/A   Clear
6:10 AM 24.8 °F 17.9 °F 15.8 °F 69% 29.99 in 10.0 mi SW 5.8 mph - N/A   Clear
6:30 AM 23.0 °F 13.1 °F 15.8 °F 74% 30.00 in 10.0 mi WSW 9.2 mph - N/A   Clear
6:50 AM 24.8 °F 15.3 °F 15.8 °F 69% 29.99 in 10.0 mi WSW 9.2 mph - N/A   Clear
7:10 AM 24.8 °F 16.1 °F 15.8 °F 69% 30.00 in 10.0 mi SW 8.1 mph - N/A   Clear
7:50 AM 24.8 °F 19.1 °F 15.8 °F 69% 30.01 in 10.0 mi West 4.6 mph - N/A   Clear
8:10 AM 28.4 °F 18.5 °F 17.6 °F 64% 30.05 in 10.0 mi NW 11.5 mph - N/A   Clear
8:30 AM 30.2 °F 26.7 °F 17.6 °F 60% 30.06 in 10.0 mi North 3.5 mph - N/A   Clear
8:50 AM 32.0 °F 25.6 °F 17.6 °F 55% 30.07 in 10.0 mi North 6.9 mph - N/A   Scattered Clouds
9:10 AM 32.0 °F 25.6 °F 17.6 °F 55% 30.08 in 10.0 mi North 6.9 mph - N/A   Partly Cloudy
9:30 AM 35.6 °F 30.7 °F 19.4 °F 52% 30.09 in 10.0 mi NNW 5.8 mph - N/A   Clear
9:50 AM 37.4 °F 30.8 °F 19.4 °F 48% 30.10 in 10.0 mi NNW 9.2 mph - N/A   Clear
10:10 AM 41.0 °F 34.7 °F 19.4 °F 42% 30.10 in 10.0 mi North 10.4 mph - N/A   Clear
10:30 AM 44.6 °F 40.2 °F 21.2 °F 39% 30.10 in 10.0 mi NNE 8.1 mph - N/A   Clear
10:50 AM 46.4 °F 40.7 °F 19.4 °F 34% 30.11 in 10.0 mi NE 12.7 mph 18.4 mph N/A   Clear
11:10 AM 46.4 °F 40.1 °F 23.0 °F 40% 30.13 in 10.0 mi NE 15.0 mph 19.6 mph N/A   Clear
11:30 AM 48.2 °F - 23.0 °F 37% 30.14 in 10.0 mi NE 19.6 mph 23.0 mph N/A   Clear
11:50 AM 46.4 °F 38.5 °F 23.0 °F 40% 30.15 in 10.0 mi NE 21.9 mph - N/A   Clear
12:10 PM 48.2 °F - 24.8 °F 40% 30.16 in 10.0 mi NE 21.9 mph 27.6 mph N/A   Clear
12:30 PM 46.4 °F 38.7 °F 23.0 °F 40% 30.16 in 10.0 mi NNE 20.7 mph 25.3 mph N/A   Clear
12:50 PM 46.4 °F 39.0 °F 24.8 °F 43% 30.17 in 10.0 mi NE 19.6 mph 25.3 mph N/A   Clear
1:10 PM 46.4 °F 39.0 °F 24.8 °F 43% 30.17 in 10.0 mi NE 19.6 mph 27.6 mph N/A   Clear
1:30 PM 46.4 °F 38.7 °F 24.8 °F 43% 30.18 in 10.0 mi NNE 20.7 mph - N/A   Clear
1:50 PM 44.6 °F 36.4 °F 24.8 °F 46% 30.20 in 10.0 mi NE 20.7 mph 28.8 mph N/A   Clear
2:10 PM 42.8 °F 33.8 °F 26.6 °F 53% 30.20 in 10.0 mi NNE 21.9 mph 28.8 mph N/A   Clear
2:30 PM 41.0 °F 31.6 °F 24.8 °F 53% 30.21 in 10.0 mi NNE 20.7 mph 26.5 mph N/A   Clear
2:50 PM 39.2 °F 30.5 °F 23.0 °F 52% 30.22 in 10.0 mi NE 16.1 mph 23.0 mph N/A   Clear
3:10 PM 39.2 °F 30.2 °F 21.2 °F 49% 30.23 in 10.0 mi NE 17.3 mph 21.9 mph N/A   Clear
3:30 PM 39.2 °F 29.6 °F 21.2 °F 49% 30.23 in 10.0 mi NNE 19.6 mph 23.0 mph N/A   Clear
3:50 PM 39.2 °F 29.3 °F 21.2 °F 49% 30.24 in 10.0 mi NNE 20.7 mph 27.6 mph N/A   Clear
4:10 PM 37.4 °F 27.5 °F 19.4 °F 48% 30.27 in 10.0 mi NNE 18.4 mph 23.0 mph N/A   Clear
4:30 PM 37.4 °F 27.5 °F 19.4 °F 48% 30.29 in 10.0 mi NE 18.4 mph - N/A   Clear
4:50 PM 35.6 °F 25.2 °F 17.6 °F 48% 30.29 in 10.0 mi NNE 18.4 mph 24.2 mph N/A   Clear
5:10 PM 32.0 °F 21.6 °F 17.6 °F 55% 30.32 in 10.0 mi NNE 15.0 mph 20.7 mph N/A   Clear
5:30 PM 32.0 °F 21.6 °F 17.6 °F 55% 30.32 in 10.0 mi NE 15.0 mph - N/A   Clear
5:50 PM 30.2 °F 20.2 °F 17.6 °F 60% 30.35 in 10.0 mi NE 12.7 mph - N/A   Clear
6:10 PM 28.4 °F 19.1 °F 15.8 °F 59% 30.36 in 10.0 mi NE 10.4 mph - N/A   Clear
6:30 PM 28.4 °F 19.1 °F 15.8 °F 59% 30.37 in 10.0 mi NE 10.4 mph - N/A   Clear
6:50 PM 26.6 °F 16.8 °F 15.8 °F 64% 30.38 in 10.0 mi NE 10.4 mph - N/A   Clear
7:10 PM 26.6 °F 17.5 °F 15.8 °F 64% 30.39 in 10.0 mi NE 9.2 mph - N/A   Clear
7:30 PM 24.8 °F 15.3 °F 14.0 °F 64% 30.40 in 10.0 mi NE 9.2 mph - N/A   Clear
7:50 PM 24.8 °F 14.6 °F 14.0 °F 64% 30.40 in 10.0 mi NE 10.4 mph - N/A   Clear
8:10 PM 24.8 °F 16.9 °F 14.0 °F 64% 30.41 in 10.0 mi ENE 6.9 mph - N/A   Clear
8:30 PM 23.0 °F 15.8 °F 14.0 °F 68% 30.43 in 10.0 mi ENE 5.8 mph - N/A   Mostly Cloudy
8:50 PM 23.0 °F 14.7 °F 14.0 °F 68% 30.41 in 10.0 mi East 6.9 mph - N/A   Scattered Clouds
9:10 PM 23.0 °F 15.8 °F 14.0 °F 68% 30.43 in 10.0 mi East 5.8 mph - N/A   Clear
9:30 PM 21.2 °F 13.6 °F 12.2 °F 68% 30.43 in 10.0 mi East 5.8 mph - N/A   Clear
9:50 PM 21.2 °F 12.6 °F 12.2 °F 68% 30.43 in 10.0 mi East 6.9 mph - N/A   Clear
10:10 PM 19.4 °F 8.6 °F 12.2 °F 74% 30.41 in 10.0 mi East 9.2 mph - N/A   Clear
10:30 PM 19.4 °F 9.5 °F 10.4 °F 68% 30.41 in 10.0 mi East 8.1 mph - N/A   Clear
10:50 PM 19.4 °F 9.5 °F 10.4 °F 68% 30.41 in 10.0 mi East 8.1 mph - N/A   Clear
11:10 PM 19.4 °F 9.5 °F 10.4 °F 68% 30.40 in 10.0 mi East 8.1 mph - N/A   Clear
11:30 PM 19.4 °F 10.4 °F 8.6 °F 63% 30.40 in 10.0 mi East 6.9 mph - N/A   Clear
11:50 PM 17.6 °F 8.2 °F 8.6 °F 68% 30.41 in 10.0 mi East 6.9 mph - N/A   Clear